ELEKTRO-L 3

Last updated on Mon Nov 03 2025 00:02:40 GMT+0000 (Coordinated Universal Time)

1 44903U 19095A 25306.57950008 -.00000085 00000+0 00000+0 0 9996 2 44903 0.0625 59.8543 0002267 199.6243 67.3155 1.00271023 21433
UTC large
Height (km)
Speed (km/s)
/
Latitude / Longitude
Inclination (degrees)
Orbital Period (minutes)
Azimuth
Elevation
Range (km)
Doppler Factor

Next 0 passes for location: London (51.5072 / 0.1276)

Sorry there are no passes over London.